Time,TemperatureF,DewpointF,PressureIn,WindDirection,WindDirectionDegrees,WindSpeedMPH,WindSpeedGustMPH,Humidity,HourlyPrecipIn,Conditions,Clouds,dailyrainin,SoftwareType,DateUTC
2013-03-08 00:01:00,29.0,24.0,30.43,SSE,156,0.0,0.0,82,0.00,,,0.00,,2013-03-08 06:01:00,
2013-03-08 00:11:00,29.0,24.0,30.43,SSE,156,0.0,0.0,82,0.00,,,0.00,,2013-03-08 06:11:00,
2013-03-08 00:21:00,29.0,25.0,30.43,SSE,156,0.0,0.0,83,0.00,,,0.00,,2013-03-08 06:21:00,
2013-03-08 00:32:00,29.0,25.0,30.43,SSE,156,0.0,0.0,84,0.00,,,0.00,,2013-03-08 06:32:00,
2013-03-08 00:42:00,29.0,25.0,30.43,SSE,156,0.0,0.0,84,0.00,,,0.00,,2013-03-08 06:42:00,
2013-03-08 00:51:00,29.0,25.0,30.44,SSE,156,0.0,0.0,84,0.00,,,0.00,,2013-03-08 06:51:00,
2013-03-08 01:01:00,29.0,25.0,30.45,SSE,156,0.0,0.0,85,0.00,,,0.00,,2013-03-08 07:01:00,
2013-03-08 01:11:00,29.0,25.0,30.45,SSE,156,0.0,0.0,85,0.00,,,0.00,,2013-03-08 07:11:00,
2013-03-08 01:22:00,29.0,25.0,30.45,SSE,156,0.0,0.0,86,0.00,,,0.00,,2013-03-08 07:22:00,
2013-03-08 01:32:00,28.0,24.0,30.46,SSE,156,0.0,0.0,86,0.00,,,0.00,,2013-03-08 07:32:00,
2013-03-08 01:42:00,28.0,24.0,30.46,SSE,156,0.0,0.0,86,0.00,,,0.00,,2013-03-08 07:42:00,
2013-03-08 01:51:00,28.0,24.0,30.46,SSE,156,0.0,0.0,86,0.00,,,0.00,,2013-03-08 07:51:00,
2013-03-08 02:01:00,28.0,24.0,30.45,SSE,156,0.0,0.0,86,0.00,,,0.00,,2013-03-08 08:01:00,
2013-03-08 02:11:00,28.0,24.0,30.45,SSE,156,0.0,0.0,86,0.00,,,0.00,,2013-03-08 08:11:00,
2013-03-08 02:21:00,28.0,24.0,30.45,SSE,156,0.0,0.0,86,0.00,,,0.00,,2013-03-08 08:21:00,
2013-03-08 02:32:00,28.0,24.0,30.45,SSE,156,0.0,0.0,86,0.00,,,0.00,,2013-03-08 08:32:00,
2013-03-08 02:41:00,28.0,24.0,30.45,SSE,156,0.0,0.0,86,0.00,,,0.00,,2013-03-08 08:41:00,
2013-03-08 02:52:00,28.0,24.0,30.45,SSE,156,0.0,0.0,86,0.00,,,0.00,,2013-03-08 08:52:00,
2013-03-08 03:03:00,27.0,24.0,30.45,SSE,156,0.0,0.0,87,0.00,,,0.00,,2013-03-08 09:03:00,
2013-03-08 03:11:00,27.0,24.0,30.45,SSE,156,0.0,0.0,87,0.00,,,0.00,,2013-03-08 09:11:00,
2013-03-08 03:21:00,27.0,24.0,30.45,SSE,156,0.0,0.0,87,0.00,,,0.00,,2013-03-08 09:21:00,
2013-03-08 03:32:00,27.0,24.0,30.45,SSE,156,0.0,0.0,88,0.00,,,0.00,,2013-03-08 09:32:00,
2013-03-08 03:42:00,27.0,24.0,30.45,SSE,156,0.0,0.0,88,0.00,,,0.00,,2013-03-08 09:42:00,
2013-03-08 03:52:00,27.0,24.0,30.45,SSE,156,0.0,0.0,88,0.00,,,0.00,,2013-03-08 09:52:00,
2013-03-08 04:01:00,27.0,24.0,30.45,SSE,156,0.0,0.0,89,0.00,,,0.00,,2013-03-08 10:01:00,
2013-03-08 04:11:00,27.0,24.0,30.45,SSE,156,0.0,0.0,89,0.00,,,0.00,,2013-03-08 10:11:00,
2013-03-08 04:21:00,27.0,24.0,30.45,SSE,156,0.0,0.0,89,0.00,,,0.00,,2013-03-08 10:21:00,
2013-03-08 04:32:00,27.0,24.0,30.46,SSE,156,0.0,0.0,89,0.00,,,0.00,,2013-03-08 10:32:00,
2013-03-08 04:41:00,27.0,24.0,30.46,SSE,156,0.0,0.0,89,0.00,,,0.00,,2013-03-08 10:41:00,
2013-03-08 04:51:00,27.0,24.0,30.46,SSE,156,0.0,0.0,89,0.00,,,0.00,,2013-03-08 10:51:00,
2013-03-08 05:01:00,27.0,24.0,30.47,SSE,156,0.0,0.0,89,0.00,,,0.00,,2013-03-08 11:01:00,
2013-03-08 05:11:00,27.0,24.0,30.47,SSE,156,0.0,0.0,89,0.00,,,0.00,,2013-03-08 11:11:00,
2013-03-08 05:21:00,27.0,24.0,30.47,SSE,156,0.0,0.0,90,0.00,,,0.00,,2013-03-08 11:21:00,
2013-03-08 05:32:00,27.0,24.0,30.48,SSE,156,0.0,0.0,90,0.00,,,0.00,,2013-03-08 11:32:00,
2013-03-08 05:42:00,27.0,24.0,30.48,SSE,156,0.0,0.0,90,0.00,,,0.00,,2013-03-08 11:42:00,
2013-03-08 05:52:00,27.0,24.0,30.48,SSE,156,0.0,0.0,90,0.00,,,0.00,,2013-03-08 11:52:00,
2013-03-08 06:01:00,27.0,24.0,30.49,SSE,156,0.0,0.0,90,0.00,,,0.00,,2013-03-08 12:01:00,
2013-03-08 06:11:00,27.0,24.0,30.49,SSE,156,0.0,0.0,90,0.00,,,0.00,,2013-03-08 12:11:00,
2013-03-08 06:22:00,26.0,23.0,30.49,SSE,156,0.0,0.0,90,0.00,,,0.00,,2013-03-08 12:22:00,
2013-03-08 06:32:00,26.0,23.0,30.49,SSE,156,0.0,0.0,90,0.00,,,0.00,,2013-03-08 12:32:00,
2013-03-08 06:43:00,26.0,23.0,30.49,SSE,156,0.0,0.0,90,0.00,,,0.00,,2013-03-08 12:43:00,
2013-03-08 06:52:00,26.0,23.0,30.49,SSE,156,0.0,0.0,90,0.00,,,0.00,,2013-03-08 12:52:00,
2013-03-08 07:01:00,26.0,23.0,30.50,SSE,156,0.0,0.0,90,0.00,,,0.00,,2013-03-08 13:01:00,
2013-03-08 07:11:00,26.0,23.0,30.50,SSE,156,0.0,0.0,90,0.00,,,0.00,,2013-03-08 13:11:00,
2013-03-08 07:21:00,26.0,24.0,30.50,SSE,156,0.0,0.0,91,0.00,,,0.00,,2013-03-08 13:21:00,
2013-03-08 07:32:00,27.0,25.0,30.50,SSE,156,0.0,0.0,92,0.00,,,0.00,,2013-03-08 13:32:00,
2013-03-08 07:42:00,27.0,25.0,30.50,SSE,156,0.0,0.0,92,0.00,,,0.00,,2013-03-08 13:42:00,
2013-03-08 07:52:00,27.0,25.0,30.50,SSE,156,0.0,0.0,92,0.00,,,0.00,,2013-03-08 13:52:00,
2013-03-08 08:02:00,29.0,27.0,30.51,SSE,156,0.0,0.0,93,0.00,,,0.00,,2013-03-08 14:02:00,
2013-03-08 08:11:00,29.0,27.0,30.51,SSE,156,0.0,0.0,93,0.00,,,0.00,,2013-03-08 14:11:00,
2013-03-08 08:22:00,30.0,28.0,30.51,SSE,156,0.0,2.0,93,0.00,,,0.00,,2013-03-08 14:22:00,
2013-03-08 08:32:00,32.0,30.0,30.50,ENE,69,2.0,3.0,92,0.01,,,0.01,,2013-03-08 14:32:00,
2013-03-08 08:42:00,32.0,30.0,30.50,ENE,69,2.0,3.0,92,0.01,,,0.01,,2013-03-08 14:42:00,
2013-03-08 08:52:00,34.0,31.0,30.50,East,87,1.0,4.0,87,0.01,,,0.01,,2013-03-08 14:52:00,
2013-03-08 09:03:00,36.0,29.0,30.50,East,89,3.0,3.0,75,0.01,,,0.01,,2013-03-08 15:03:00,
2013-03-08 09:11:00,37.0,28.0,30.50,NE,53,3.0,3.0,71,0.01,,,0.01,,2013-03-08 15:11:00,
2013-03-08 09:22:00,37.0,28.0,30.50,NE,53,3.0,3.0,71,0.01,,,0.01,,2013-03-08 15:22:00,
2013-03-08 09:32:00,39.0,29.0,30.50,SE,140,1.0,4.0,66,0.00,,,0.01,,2013-03-08 15:32:00,
2013-03-08 09:42:00,39.0,29.0,30.50,SE,140,1.0,4.0,66,0.00,,,0.01,,2013-03-08 15:42:00,
2013-03-08 09:53:00,40.0,28.0,30.50,ESE,111,3.0,3.0,62,0.00,,,0.01,,2013-03-08 15:53:00,
2013-03-08 10:01:00,40.0,27.0,30.51,ENE,70,0.0,1.0,59,0.00,,,0.01,,2013-03-08 16:01:00,
2013-03-08 10:11:00,40.0,27.0,30.51,ENE,70,0.0,1.0,59,0.00,,,0.01,,2013-03-08 16:11:00,
2013-03-08 10:22:00,41.0,28.0,30.51,East,93,1.0,3.0,59,0.00,,,0.01,,2013-03-08 16:22:00,
2013-03-08 10:32:00,42.0,30.0,30.50,East,86,0.0,2.0,61,0.00,,,0.01,,2013-03-08 16:32:00,
2013-03-08 10:42:00,42.0,30.0,30.50,East,86,0.0,2.0,61,0.00,,,0.01,,2013-03-08 16:42:00,
2013-03-08 10:52:00,42.0,29.0,30.50,SE,139,3.0,3.0,60,0.00,,,0.01,,2013-03-08 16:52:00,
2013-03-08 11:02:00,43.0,30.0,30.50,South,171,3.0,3.0,61,0.00,,,0.01,,2013-03-08 17:02:00,
2013-03-08 11:11:00,43.0,30.0,30.50,South,171,3.0,3.0,61,0.00,,,0.01,,2013-03-08 17:11:00,
2013-03-08 11:21:00,44.0,31.0,30.50,ENE,60,3.0,4.0,60,0.00,,,0.01,,2013-03-08 17:21:00,
2013-03-08 11:32:00,43.0,29.0,30.49,NE,45,2.0,5.0,58,0.00,,,0.01,,2013-03-08 17:32:00,
2013-03-08 11:42:00,43.0,29.0,30.49,NE,45,2.0,5.0,58,0.00,,,0.01,,2013-03-08 17:42:00,
2013-03-08 11:52:00,44.0,30.0,30.49,NE,55,5.0,5.0,57,0.00,,,0.01,,2013-03-08 17:52:00,
2013-03-08 12:02:00,45.0,32.0,30.48,ENE,71,2.0,2.0,61,0.00,,,0.01,,2013-03-08 18:02:00,
2013-03-08 12:11:00,45.0,32.0,30.48,ENE,71,2.0,2.0,61,0.00,,,0.01,,2013-03-08 18:11:00,
2013-03-08 12:21:00,44.0,29.0,30.48,ENE,60,0.0,1.0,56,0.00,,,0.01,,2013-03-08 18:21:00,
2013-03-08 12:32:00,46.0,32.0,30.45,ENE,57,1.0,1.0,57,0.00,,,0.01,,2013-03-08 18:32:00,
2013-03-08 12:42:00,46.0,32.0,30.45,ENE,57,1.0,1.0,57,0.00,,,0.01,,2013-03-08 18:42:00,
2013-03-08 12:52:00,46.0,30.0,30.45,NE,43,4.0,4.0,54,0.00,,,0.01,,2013-03-08 18:52:00,
2013-03-08 13:01:00,46.0,32.0,30.42,ENE,63,3.0,6.0,57,0.00,,,0.01,,2013-03-08 19:01:00,
2013-03-08 13:11:00,46.0,32.0,30.42,ENE,63,3.0,6.0,57,0.00,,,0.01,,2013-03-08 19:11:00,
2013-03-08 13:21:00,46.0,32.0,30.42,ENE,62,2.0,4.0,57,0.00,,,0.01,,2013-03-08 19:21:00,
2013-03-08 13:32:00,48.0,33.0,30.40,ENE,61,1.0,3.0,55,0.00,,,0.01,,2013-03-08 19:32:00,
2013-03-08 13:41:00,48.0,33.0,30.40,ENE,61,1.0,3.0,55,0.00,,,0.01,,2013-03-08 19:41:00,
2013-03-08 13:52:00,49.0,33.0,30.40,ENE,59,2.0,4.0,54,0.00,,,0.01,,2013-03-08 19:52:00,
2013-03-08 14:01:00,48.0,31.0,30.38,NE,51,3.0,4.0,52,0.00,,,0.01,,2013-03-08 20:01:00,
2013-03-08 14:11:00,48.0,31.0,30.38,NE,51,3.0,4.0,52,0.00,,,0.01,,2013-03-08 20:11:00,
2013-03-08 14:21:00,48.0,31.0,30.38,NE,54,1.0,2.0,52,0.00,,,0.01,,2013-03-08 20:21:00,
2013-03-08 14:32:00,49.0,32.0,30.37,ENE,72,1.0,2.0,51,0.00,,,0.01,,2013-03-08 20:32:00,
2013-03-08 14:42:00,49.0,32.0,30.37,ENE,72,1.0,2.0,51,0.00,,,0.01,,2013-03-08 20:42:00,
2013-03-08 14:52:00,50.0,32.0,30.37,NE,54,2.0,3.0,50,0.00,,,0.01,,2013-03-08 20:52:00,
2013-03-08 15:02:00,51.0,30.0,30.37,ENE,63,1.0,3.0,45,0.00,,,0.01,,2013-03-08 21:02:00,
2013-03-08 15:11:00,51.0,30.0,30.37,ENE,63,1.0,3.0,45,0.00,,,0.01,,2013-03-08 21:11:00,
2013-03-08 15:21:00,51.0,31.0,30.37,ENE,59,3.0,5.0,47,0.00,,,0.01,,2013-03-08 21:21:00,
2013-03-08 15:32:00,51.0,31.0,30.36,ENE,69,2.0,3.0,47,0.00,,,0.01,,2013-03-08 21:32:00,
2013-03-08 15:42:00,51.0,31.0,30.36,ENE,69,2.0,3.0,47,0.00,,,0.01,,2013-03-08 21:42:00,
2013-03-08 15:52:00,51.0,30.0,30.36,NE,45,1.0,3.0,45,0.00,,,0.01,,2013-03-08 21:52:00,
2013-03-08 16:01:00,51.0,31.0,30.35,SE,130,2.0,3.0,46,0.00,,,0.01,,2013-03-08 22:01:00,
2013-03-08 16:11:00,51.0,31.0,30.35,SE,130,2.0,3.0,46,0.00,,,0.01,,2013-03-08 22:11:00,
2013-03-08 16:22:00,52.0,31.0,30.35,NE,34,1.0,3.0,45,0.00,,,0.01,,2013-03-08 22:22:00,
2013-03-08 16:32:00,52.0,32.0,30.35,East,88,3.0,3.0,46,0.00,,,0.01,,2013-03-08 22:32:00,
2013-03-08 16:42:00,52.0,32.0,30.35,East,88,3.0,3.0,46,0.00,,,0.01,,2013-03-08 22:42:00,
2013-03-08 16:52:00,52.0,32.0,30.35,ESE,119,0.0,0.0,46,0.00,,,0.01,,2013-03-08 22:52:00,
2013-03-08 17:01:00,51.0,31.0,30.35,SSE,162,0.0,0.0,46,0.00,,,0.01,,2013-03-08 23:01:00,
2013-03-08 17:11:00,51.0,31.0,30.35,SSE,162,0.0,0.0,46,0.00,,,0.01,,2013-03-08 23:11:00,
2013-03-08 17:21:00,51.0,30.0,30.35,SSE,150,0.0,1.0,45,0.00,,,0.01,,2013-03-08 23:21:00,
2013-03-08 17:32:00,51.0,30.0,30.34,SSE,150,0.0,1.0,45,0.00,,,0.01,,2013-03-08 23:32:00,
2013-03-08 17:42:00,51.0,30.0,30.34,SSE,150,0.0,1.0,45,0.00,,,0.01,,2013-03-08 23:42:00,
2013-03-08 17:52:00,50.0,31.0,30.34,SSE,150,1.0,1.0,47,0.00,,,0.01,,2013-03-08 23:52:00,
2013-03-08 18:02:00,50.0,32.0,30.35,SSE,150,0.0,0.0,50,0.00,,,0.01,,2013-03-09 00:02:00,
2013-03-08 18:11:00,50.0,32.0,30.35,SSE,150,0.0,0.0,50,0.00,,,0.01,,2013-03-09 00:11:00,
2013-03-08 18:22:00,49.0,32.0,30.35,SSE,150,0.0,0.0,51,0.00,,,0.01,,2013-03-09 00:22:00,
2013-03-08 18:32:00,47.0,31.0,30.36,SSE,150,0.0,0.0,53,0.00,,,0.01,,2013-03-09 00:32:00,
2013-03-08 18:42:00,47.0,31.0,30.36,SSE,150,0.0,0.0,53,0.00,,,0.01,,2013-03-09 00:42:00,
2013-03-08 18:52:00,47.0,32.0,30.36,SSE,150,0.0,0.0,55,0.00,,,0.01,,2013-03-09 00:52:00,
2013-03-08 19:01:00,45.0,31.0,30.36,SSE,150,0.0,0.0,57,0.00,,,0.01,,2013-03-09 01:01:00,
2013-03-08 19:12:00,44.0,30.0,30.36,SSE,150,0.0,0.0,57,0.00,,,0.01,,2013-03-09 01:12:00,
2013-03-08 19:21:00,44.0,30.0,30.36,SSE,150,0.0,0.0,57,0.00,,,0.01,,2013-03-09 01:21:00,
2013-03-08 19:32:00,43.0,29.0,30.36,SSE,150,0.0,0.0,58,0.00,,,0.01,,2013-03-09 01:32:00,
2013-03-08 19:42:00,43.0,29.0,30.36,SSE,150,0.0,0.0,58,0.00,,,0.01,,2013-03-09 01:42:00,
2013-03-08 19:51:00,43.0,30.0,30.36,SSE,150,0.0,0.0,59,0.00,,,0.01,,2013-03-09 01:51:00,
2013-03-08 20:01:00,42.0,30.0,30.34,SSE,150,0.0,0.0,63,0.00,,,0.01,,2013-03-09 02:01:00,
2013-03-08 20:11:00,42.0,30.0,30.34,SSE,150,0.0,0.0,63,0.00,,,0.01,,2013-03-09 02:11:00,
2013-03-08 20:21:00,41.0,30.0,30.34,SSE,150,0.0,0.0,64,0.00,,,0.01,,2013-03-09 02:21:00,
2013-03-08 20:31:00,40.0,30.0,30.35,SSE,150,0.0,0.0,66,0.00,,,0.01,,2013-03-09 02:31:00,
2013-03-08 20:41:00,40.0,30.0,30.35,SSE,150,0.0,0.0,66,0.00,,,0.01,,2013-03-09 02:41:00,
2013-03-08 20:51:00,40.0,30.0,30.35,SSE,150,0.0,0.0,66,0.00,,,0.01,,2013-03-09 02:51:00,
2013-03-08 21:01:00,40.0,30.0,30.34,SSE,150,0.0,0.0,66,0.00,,,0.01,,2013-03-09 03:01:00,
2013-03-08 21:11:00,40.0,30.0,30.34,SSE,150,0.0,0.0,66,0.00,,,0.01,,2013-03-09 03:11:00,
2013-03-08 21:21:00,40.0,30.0,30.34,SSE,150,0.0,1.0,67,0.00,,,0.01,,2013-03-09 03:21:00,
2013-03-08 21:31:00,39.0,30.0,30.32,SSE,150,0.0,0.0,69,0.00,,,0.01,,2013-03-09 03:31:00,
2013-03-08 21:41:00,39.0,30.0,30.32,SSE,150,0.0,0.0,69,0.00,,,0.01,,2013-03-09 03:41:00,
2013-03-08 21:52:00,39.0,30.0,30.32,SSE,150,0.0,0.0,69,0.00,,,0.01,,2013-03-09 03:52:00,
2013-03-08 22:01:00,38.0,30.0,30.32,SSE,150,0.0,0.0,72,0.00,,,0.01,,2013-03-09 04:01:00,
2013-03-08 22:11:00,38.0,30.0,30.32,SSE,150,0.0,0.0,72,0.00,,,0.01,,2013-03-09 04:11:00,
2013-03-08 22:22:00,38.0,29.0,30.32,SSE,150,0.0,0.0,71,0.00,,,0.01,,2013-03-09 04:22:00,
2013-03-08 22:32:00,39.0,30.0,30.33,SSE,150,0.0,0.0,70,0.00,,,0.01,,2013-03-09 04:32:00,
2013-03-08 22:41:00,39.0,30.0,30.33,SSE,150,0.0,0.0,70,0.00,,,0.01,,2013-03-09 04:41:00,
2013-03-08 22:51:00,39.0,30.0,30.33,SSE,150,0.0,0.0,69,0.00,,,0.01,,2013-03-09 04:51:00,
2013-03-08 23:02:00,39.0,30.0,30.32,SSE,150,0.0,0.0,69,0.00,,,0.01,,2013-03-09 05:02:00,
2013-03-08 23:12:00,39.0,30.0,30.32,SSE,150,0.0,0.0,69,0.00,,,0.01,,2013-03-09 05:12:00,
2013-03-08 23:22:00,39.0,30.0,30.32,SSE,150,0.0,0.0,70,0.00,,,0.01,,2013-03-09 05:22:00,
2013-03-08 23:31:00,39.0,30.0,30.31,SSE,150,0.0,0.0,69,0.00,,,0.01,,2013-03-09 05:31:00,
2013-03-08 23:42:00,39.0,30.0,30.31,SSE,150,0.0,0.0,69,0.00,,,0.01,,2013-03-09 05:42:00,
2013-03-08 23:52:00,39.0,29.0,30.31,SSE,150,0.0,0.0,68,0.00,,,0.01,,2013-03-09 05:52:00,